#timestamp,LO_Frequency,Hit,StdDev 
1658210415.1,286046997.2,N
1658210416.0,286046997.2,N
1658210435.8,286046998.5,N
1658210455.7,286046998.4,N
1658210475.5,286046998.3,N
1658210495.3,286047001.0,N
1658210515.2,286047000.4,N
1658210535.0,286047000.1,N
1658210535.9,286047000.1,N
1658210555.8,286047002.1,N
1658210575.6,286046998.5,N
1658210595.4,286046998.8,N
1658210615.3,286046998.2,N
1658210635.1,286046998.6,N
1658210655.8,286046999.0,N
1658210675.7,286046999.5,N
1658210695.5,286046999.1,N
1658210715.4,286046996.6,N
1658210735.2,286046999.4,N
1658210755.0,286046998.9,N
1658210755.9,286046998.9,N
1658210775.8,286046998.2,N
1658210795.6,286046999.6,N
1658210815.4,286047000.9,N
1658210835.3,286046999.1,N
1658210855.1,286046998.0,N
1658210875.9,286046997.6,N
1658210895.7,286046995.8,Y
1658210915.5,286046996.8,P
1658210935.4,286047002.8,N
1658210955.2,286046999.7,N
1658210975.0,286047000.6,N
1658210975.9,286047000.6,N
1658210995.8,286046998.5,N
1658211015.6,286046999.9,N
1658211035.5,286047002.6,N
1658211055.3,286047002.2,N
1658211075.1,286047002.8,N
1658211095.9,286047001.0,N
1658211115.7,286046999.8,N
1658211135.5,286047000.2,N
1658211155.4,286047000.4,N
1658211175.2,286047000.2,N
1658211195.1,286047000.4,N
1658211196.0,286047000.4,N
1658211215.8,286047001.9,N
1658211235.6,286047002.5,N
1658211255.5,286047001.9,N
1658211275.3,286047000.1,N
1658211295.1,286046998.6,N
1658211315.9,286047002.6,N
1658211335.7,286047002.3,N
1658211355.6,286047000.2,N
1658211375.4,286047002.4,N
1658211395.2,286047002.5,N
1658211415.1,286047002.3,N
1658211416.0,286047002.3,N
1658211435.8,286047000.6,N
1658211455.6,286047002.7,N
1658211475.5,286047002.8,N
1658211495.3,286046999.8,N
1658211515.2,286047001.6,N
1658211535.9,286047000.5,N
1658211555.7,286046998.9,N
1658211575.6,286046999.4,N
1658211595.4,286046999.6,N
1658211615.2,286046997.2,N
1658211635.1,286046998.6,N
1658211636.0,286046998.6,N
1658211655.8,286047000.9,N
1658211675.7,286046998.1,N
1658211695.5,286046999.3,N
1658211715.3,286046997.0,N
1658211735.2,286046995.2,N
1658211755.9,286046998.9,N
1658211775.7,286046999.2,N
1658211795.6,286046997.4,N
1658211815.4,286046995.9,N
1658211835.3,286046995.8,N
1658211855.1,286046998.5,N
1658211856.0,286046998.5,N
1658211875.8,286047001.1,N
1658211895.7,286046996.5,N
1658211915.5,286046998.9,N
1658211935.3,286046997.3,N
1658211955.2,286046996.6,N
1658211975.0,286046997.3,N
1658211975.9,286046997.3,N
1658211995.8,286046996.8,N
1658212015.6,286046997.1,N
1658212035.4,286046997.3,N
1658212055.3,286046999.1,N
1658212075.1,286046997.3,N
1658212095.9,286046995.2,Y
1658212115.7,286046997.0,P
1658212135.5,286046996.7,P
1658212155.4,286046997.4,P
1658212175.2,286046997.0,Y
1658212195.0,286046999.9,P
1658212195.9,286046999.9,N
1658212215.8,286047000.9,N
1658212235.6,286046998.9,N
1658212255.5,286046998.6,N
1658212275.3,286047000.2,N
1658212295.1,286047000.6,N
1658212315.9,286047002.0,N
1658212335.7,286047004.4,Y
1658212355.6,286047002.6,P
1658212375.4,286047002.7,N
1658212395.2,286047000.5,N
1658212415.1,286046999.7,N
1658212416.0,286046999.7,N
1658212435.8,286047000.6,N
1658212455.6,286047000.3,N
1658212475.5,286047004.4,Y
1658212495.3,286047006.0,P
1658212515.2,286047003.5,N
1658212535.0,286047005.9,N
1658212535.9,286047005.9,N
1658212555.7,286047001.5,N
1658212575.6,286047000.6,N
1658212595.4,286047001.7,N
1658212615.3,286047000.8,N
1658212635.1,286047002.7,N
1658212636.0,286047002.7,N
1658212655.8,286047002.7,N
1658212675.7,286047002.4,N
1658212695.5,286046998.6,N
1658212715.4,286047000.9,N
1658212735.2,286046998.7,N
1658212755.0,286047000.3,N
1658212755.9,286047000.3,N
1658212775.8,286047000.8,N
1658212795.6,286047000.4,N
1658212815.4,286047000.3,N
1658212835.3,286047002.4,N
1658212855.1,286047002.7,N
1658212875.9,286047002.7,N
1658212895.7,286047001.2,N
1658212915.5,286046998.2,N
1658212935.4,286047000.7,N
1658212955.2,286046998.1,N
1658212975.0,286047001.0,N
1658212976.0,286047001.0,N
1658212995.8,286047002.2,N
1658213015.6,286046998.6,N
1658213035.5,286046999.1,N
1658213055.3,286046996.5,N
1658213075.1,286046998.2,N
1658213095.9,286047001.2,N
1658213115.7,286047001.2,N
1658213135.6,286046996.7,N
1658213155.4,286046995.1,N
1658213175.2,286046994.9,N
1658213195.1,286046999.5,N
1658213196.0,286046999.5,N
1658213215.8,286047001.1,N
1658213235.6,286047000.8,N
1658213255.5,286046999.5,N
1658213275.3,286046999.4,N
1658213295.2,286046999.4,N
1658213315.9,286046996.6,N
1658213335.7,286046997.3,N
1658213355.6,286046999.0,N
1658213375.4,286046999.8,N
1658213395.2,286047002.3,N
1658213415.1,286047002.5,N
1658213416.0,286047002.5,N
1658213435.8,286047004.4,N
1658213455.7,286047002.3,N
1658213475.5,286047002.6,N
1658213495.3,286047002.7,N
1658213515.2,286046998.3,N
1658213535.0,286046999.4,N
1658213535.9,286046999.4,N
1658213555.8,286047001.0,N
1658213575.6,286047000.0,N
1658213595.4,286047000.3,N
1658213615.3,286046998.7,N
1658213635.1,286046997.6,N
1658213655.8,286046997.3,N
1658213675.7,286046995.1,N
1658213695.5,286046998.0,N
1658213715.4,286046997.7,N
1658213735.2,286046999.5,N
1658213755.0,286046999.1,N
1658213755.9,286046999.1,N
1658213775.8,286046999.0,N
1658213825.6,286046998.4,E
1658213835.6,286046998.3,N
1658213855.4,286047002.6,P
1658213875.2,286047000.2,N
1658213895.1,286047000.1,N
1658213896.0,286047000.1,N
1658213915.8,286046998.3,N
1658213935.7,286046999.5,N
1658213955.5,286046996.8,N
1658213975.3,286046994.9,Y
1658213995.2,286046996.9,P
